Regional Weather Roundup
Issued by NWS

Home | Current Version | Previous Version | Text Only | Print | Product List | Glossary Off
Versions: 1 2 3 4 5 6 7 8 9 10 11 12 13 14 15 16 17 18 19 20 21 22 23 24 25 26 27 28 29 30 31 32 33 34 35 36 37 38 39 40 41 42 43 44 45 46 47 48 49 50

000
ASUS44 KMEG 200210
RWRTN
TENNESSEE HOURLY STATE WEATHER ROUNDUP
NATIONAL WEATHER SERVICE MEMPHIS TN
900 PM CDT SUN OCT 19 2014

TNZ002-004-019-021-049-052-054-088>092-200300-
WEST TENNESSEE

CITY           SKY/WX    TMP DP  RH WIND       PRES   REMARKS
MEMPHIS INTL   PTCLDY    56  49  77 CALM      30.11S
NWS MEMPHIS      N/A     52 N/A N/A MISG        N/A
JACKSON        CLEAR     49  47  93 CALM      30.11S
DYERSBURG      MOCLDY    52  39  62 CALM      30.12F
UNION CITY     CLEAR     52  48  87 CALM      30.10S
PARIS          CLEAR     48  45  87 CALM      30.11F
HUNTINGDON     CLEAR     48  45  90 CALM      30.11F
LEXINGTON      CLEAR     48  48 100 CALM      30.10S
SAVANNAH       CLEAR     48  48 100 CALM      30.12R
$$

TNZ008-025-027-028-033-062-065-066-200300-
NORTH MIDDLE TENNESSEE

CITY           SKY/WX    TMP DP  RH WIND       PRES   REMARKS
NASHVILLE      PTCLDY    53  47  79 CALM      30.11F
CLARKSVILLE    MOCLDY    51  48  89 CALM      30.10F
SMYRNA         PTCLDY    49  46  89 CALM      30.13S
COOKEVILLE     CLEAR     46  45  93 CALM      30.11S
CROSSVILLE     MOCLDY    49  44  83 CALM      30.13S
$$

TNZ061-075-076-078-094-096-097-200300-
SOUTH MIDDLE TENNESSEE

CITY           SKY/WX    TMP DP  RH WIND       PRES   REMARKS
FAYETTEVILLE   CLEAR     50  45  81 MISG      30.11S
TULLAHOMA      CLEAR     48  45  87 CALM      30.13S
WINCHESTER     CLEAR     46  46 100 CALM      30.12S
MCMINNVILLE    CLEAR     48  48 100 CALM      30.12S
COLUMBIA       CLEAR     52  52 100 SE3       30.09F
SHELBYVILLE    CLEAR     48  48 100 CALM      30.13S
$$

TNZ017-018-042-046-047-200300-
NORTHEAST TENNESSEE

CITY           SKY/WX    TMP DP  RH WIND       PRES   REMARKS
TRI CITIES     PTCLDY    44  40  85 CALM      30.13S
ELIZABETHTON   CLEAR     43  39  87 VRB3      30.14S
$$

TNZ012-013-036-069-073-074-200300-
CENTRAL EAST TENNESSEE

CITY           SKY/WX    TMP DP  RH WIND       PRES   REMARKS
KNOXVILLE      MOCLDY    52  44  74 CALM      30.10S
OAK RIDGE      MOCLDY    50  46  86 CALM      30.13S
GATLINBURG     CLEAR     46  45  93 CALM      30.11S
MORRISTOWN     CLEAR     48  45  87 CALM      30.12S
$$

TNZ083-085-099-200300-
SOUTHEAST TENNESSEE

CITY           SKY/WX    TMP DP  RH WIND       PRES   REMARKS
CHATTANOOGA    MOCLDY    53  48  83 CALM      30.11S
$$

SKY/WX REPORTED AS FAIR MEANS FEW OR NO CLOUDS BELOW
12 THOUSAND FEET.



USA.gov is the U.S. government's official web portal to all federal, state and local government web resources and services.